Location: Beniant-Kari
(42.4675°N, 44.5317°E)
Time: 11:05:21
(UTC+00:00)

Daily predictions for brighter satellites

Satellite Brightness Start Highest point End
(mag) Time Altitude Azimuth Time Altitude Azimuth Time Altitude Azimuth
ASTEX 1 3.4 16:41:16 10° SSE 16:46:12 75° E 16:51:10 10° N
Cosmos 2333 Rocket 4.2 16:43:40 10° N 16:46:51 15° NE 16:50:01 10° ENE
USA 306 4.4 16:43:47 10° W 16:47:04 29° NNW 16:49:40 10° NNE
CZ-4B R/B 3.9 16:45:01 10° SSE 16:48:59 69° ENE 16:53:01 10° N
CZ-4 R/B 1.2 16:45:26 10° SSE 16:48:59 60° ENE 16:52:34 10° N
SL-4 R/B 4.0 16:47:16 10° W 16:50:00 19° SW 16:52:44 10° S
Cosmos 1782 3.4 16:47:01 10° SSE 16:50:04 28° E 16:53:08 10° NNE
Cosmos 2173 Rocket 4.0 16:46:47 10° S 16:52:54 82° E 16:59:10 10° N
Cosmos 2016 Rocket 4.3 16:47:00 10° SSE 16:52:57 47° E 16:58:50 10° NNE
ERS-1 Rocket 3.3 16:48:09 10° SE 16:52:59 51° ENE 16:57:50 10° N
SL-24 R/B 4.2 16:51:26 10° NNE 16:55:49 85° WNW 17:00:07 10° SSW
CZ-4C R/B 3.0 16:52:45 10° WSW 16:56:40 44° NW 17:01:38 10° NNE
CZ-4B DEB 4.3 16:53:34 10° SSE 16:59:02 69° ENE 17:04:33 10° N
Cosmos 2360 Rocket 4.4 16:59:10 10° NNE 17:01:04 12° NE 17:02:57 10° ENE
Cosmos 909 Rocket 4.2 16:55:45 10° S 17:01:56 51° ESE 17:08:03 10° NE
CZ-4B R/B 3.6 16:56:39 10° SE 17:02:07 53° ENE 17:07:34 10° N
Cosmos 1816 Rocket 4.5 16:57:19 10° N 17:03:27 74° E 17:09:37 10° SSE
Cosmos 1992 Rocket 4.5 17:03:21 10° S 17:08:09 39° ESE 17:12:58 10° NE
Longmarch 3A Rocket 4.1 17:04:31 10° WSW 17:09:46 16° SSW 17:12:29 10° SSE
NOSS 3-3 (A) 3.5 17:06:03 10° SSW 17:10:59 68° ESE 17:16:49 10° NE
Feng Yun 1-1 Rocket 4.2 17:09:37 10° SSE 17:15:00 89° WSW 17:20:28 10° NNW
Cosmos 1461 3.4 17:13:08 10° S 17:16:19 28° ESE 17:19:31 10° NE
BREEZE-M DEB (TANK) 3.8 17:14:51 10° W 17:17:14 32° SSW 17:21:15 12° SSE
Gbstr 26 Del rocket 3.3 17:14:56 10° WNW 17:20:07 67° SW 17:23:31 16° SE
BREEZE-M DEB (TANK) 3.2 17:17:37 10° WNW 17:20:32 88° NNE 17:26:56 14° ESE
Cosmos 1607 4.4 17:20:43 10° SW 17:26:48 65° NW 17:33:03 10° NNE
Cosmos 2061 Rocket 4.1 17:21:17 10° SSE 17:27:19 55° E 17:33:26 10° NNE
ISS -1.1 17:26:28 10° WNW 17:29:05 21° NNW 17:31:41 10° NE
SL-08 R/B 3.3 17:24:26 10° NNE 17:29:13 67° ESE 17:33:53 10° S
Cosmos 1437 Rocket 3.9 17:29:07 19° ESE 17:30:05 21° E 17:32:52 10° NE
IRS-1A Rocket 4.4 17:25:04 11° SSE 17:30:37 74° ENE 17:36:31 10° N
GEOS 3 Rocket 3.9 17:26:16 13° SSE 17:31:02 67° SW 17:36:24 10° NW
Terra 1.9 17:28:16 10° S 17:32:57 76° WSW 17:37:39 10° NNW
Cosmos 2322 Rocket 3.9 17:29:17 10° N 17:33:24 20° NE 17:37:12 11° E
Cosmos 1302 Rocket 4.3 17:28:50 10° SSW 17:33:58 68° WNW 17:39:09 10° NNE
Cosmos 2082 Rocket 2.5 17:28:49 10° SSW 17:34:31 73° WNW 17:40:15 10° NNE
Cosmos 1626 Rocket 4.3 17:30:40 10° N 17:34:42 35° ENE 17:37:02 21° SE
Cosmos 2237 4.3 17:29:02 10° NNW 17:34:46 67° ENE 17:39:00 19° SE
USA 305 3.3 17:31:46 10° WNW 17:35:39 43° SW 17:37:50 20° SSE
Cosmos 1802 Rocket 4.4 17:31:35 10° SSW 17:37:42 66° W 17:43:49 10° N
ADEOS 3.6 17:33:29 11° SSE 17:38:31 83° WSW 17:43:46 10° NNW
Cosmos 2369 3.7 17:35:15 10° NNW 17:41:00 84° ENE 17:45:15 19° SSE
NOSS 3-3 (C) 3.7 17:37:41 10° SW 17:42:46 85° NW 17:48:49 10° NE
Cosmos 2151 3.9 17:40:50 10° NNE 17:44:30 31° ENE 17:46:01 24° ESE
Cosmos 1743 3.5 17:42:12 10° NNW 17:45:00 35° W 17:47:40 11° SSW
MOS 1-B 4.4 17:42:14 18° SSE 17:46:38 70° ENE 17:52:25 10° N
Delta 2 Rocket 4.0 17:47:21 10° SW 17:49:24 21° S 17:49:24 21° S
Helios 1A Rocket 4.5 17:50:00 10° N 17:52:42 26° WNW 17:55:23 10° SW
DELTA 2 R/B (1) 3.5 17:53:41 10° W 17:59:13 66° S 18:02:48 22° ESE
Okean O Rocket 1.5 17:56:47 23° SSE 17:59:23 86° WSW 18:03:42 10° NNW
Cosmos 2278 4.4 17:54:20 10° NNW 17:59:43 40° ENE 18:02:38 24° ESE
CZ-4B R/B 3.2 18:00:19 32° E 18:00:57 35° ENE 18:04:07 10° N
SL-16 R/B 2.5 17:58:49 10° NNW 18:04:24 55° ENE 18:07:14 28° SE
Cosmos 2228 4.1 18:00:49 10° SSW 18:04:42 40° WNW 18:08:36 10° N
Cosmos 2233 Rocket 4.4 17:58:41 10° SSW 18:04:49 64° W 18:10:57 10° N
Cosmos 1891 Rocket 4.5 18:00:32 20° SSE 18:04:50 61° E 18:10:47 10° NNE
USA 186 1.8 18:10:49 48° SW 18:11:13 55° W 18:13:56 10° NNW
Cosmos 1544 Rocket 3.4 18:08:28 22° S 18:11:14 89° ESE 18:15:34 10° N
COSMOS 2406 3.4 18:09:30 10° SSW 18:15:14 73° WNW 18:21:00 10° NNE
Cosmos 1805 4.0 18:13:51 10° NNE 18:16:28 29° ENE 18:16:28 29° ENE
BREEZE-M DEB (TANK) 4.0 18:16:30 10° WNW 18:19:04 21° NNW 18:20:42 11° NE
Cosmos 1980 Rocket 4.0 18:15:11 10° NW 18:19:38 24° WSW 18:24:03 10° SSW
Ariane Rocket 3.2 18:17:58 35° SE 18:19:53 56° ENE 18:24:51 10° N
Okean-O 3.2 18:17:41 23° SSW 18:20:09 52° W 18:24:26 10° NNW
SPOT 3 Rocket 3.5 18:20:37 35° SSE 18:22:52 79° ENE 18:28:00 10° N
BREEZE-M DEB (TANK) 2.4 18:18:25 10° WSW 18:23:04 74° NNW 18:23:51 40° NE
CZ-2C R/B 3.5 18:24:02 26° NE 18:24:02 26° NE 18:25:47 10° N
Nadezhda 4 Rocket 4.4 18:19:02 10° N 18:24:53 45° ENE 18:27:06 32° SE
Meteor 1-20 Rocket 4.2 18:19:22 10° N 18:25:00 89° W 18:27:49 32° S
Spot 2 Rocket 4.3 18:22:02 19° SSW 18:25:22 46° W 18:30:13 10° NNW
Cosmos 1933 3.3 18:27:19 38° SSW 18:28:38 73° W 18:32:26 10° N
Cosmos 1758 Rocket 4.0 18:27:27 10° NNW 18:31:48 59° W 18:33:37 33° SSW
Cosmos 2333 Rocket 2.2 18:26:20 10° NNW 18:32:04 80° ENE 18:34:15 40° SSE
Cosmos 1763 Rocket 3.9 18:33:32 40° ESE 18:34:09 41° ESE 18:39:05 10° NNE
BREEZE-M DEB (TANK) 4.5 18:21:38 10° WSW 18:37:06 70° NNW 18:42:17 10° ENE
Milstar 3 4.5 18:34:15 10° WSW 18:39:12 19° SSW 18:39:43 19° S
Cosmos 1825 Rocket 3.8 18:40:50 10° N 18:45:05 51° ENE 18:45:21 50° E
Cosmos 2360 Rocket 2.4 18:40:39 10° NNW 18:46:17 61° ENE 18:47:55 43° ESE
CZ-4B R/B 3.3 18:45:46 48° S 18:47:04 76° WSW 18:51:54 10° NNW
Okean 1 3.7 18:48:21 44° NE 18:48:21 44° NE 18:51:05 10° NNE
Cosmos 1953 Rocket 4.5 18:47:03 10° N 18:50:54 33° ENE 18:50:54 33° ENE
Cosmos 2333 4.5 18:47:59 10° NNW 18:53:39 58° ENE 18:55:12 44° ESE
Cosmos 1602 Rocket 3.9 18:51:46 10° NNW 18:56:01 57° W 18:56:50 48° SW
Cosmos 2058 Rocket 4.3 19:00:13 28° ENE 19:00:13 28° ENE 19:03:10 10° NNE
Meteor 1-25 Rocket 4.5 18:53:56 10° NNW 18:59:29 61° W 19:01:29 38° SSW
Cosmos 2219 Rocket 2.7 18:54:15 10° NNW 18:59:44 49° ENE 19:01:07 40° E
Cosmos 1777 Rocket 3.9 18:54:48 10° NNW 19:00:03 87° ENE 19:01:01 61° SSE
USA 290 3.7 19:07:21 35° NNW 19:07:21 35° NNW 19:09:28 10° N
ISS -1.0 19:04:22 10° NW 19:06:45 18° N 19:08:28 13° NE
Cosmos 1503 Rocket 3.8 19:03:16 10° NNW 19:08:28 79° ENE 19:09:08 66° SE
Cosmos 2098 Rocket 3.9 19:07:46 35° SW 19:09:22 50° W 19:13:36 10° N
Cosmos 1464 Rocket 4.2 19:09:12 33° SSW 19:12:02 67° W 19:18:13 10° N
Helios 1A 3.9 19:08:30 10° NNE 19:11:05 35° NE 19:11:05 35° NE
Cosmos 1076 Rocket 3.5 19:10:55 10° N 19:14:52 74° NNE 19:14:52 74° NNE
ARIANE 5 R/B 4.5 19:17:33 19° ENE 19:17:38 19° ENE 19:20:47 10° NNE
Cosmos 2322 Rocket 2.2 19:12:21 10° NNW 19:17:59 71° WSW 19:18:59 58° SSW
Cosmos 1486 Rocket 4.3 19:14:22 10° NNW 19:19:31 55° WSW 19:20:20 50° SW
Cosmos 1354 Rocket 3.9 19:17:30 10° NNW 19:22:44 72° ENE 19:23:09 68° ESE
Cosmos 540 Rocket 3.7 19:33:38 50° WSW 19:34:43 63° WNW 19:39:50 10° NNE
Cosmos 1092 Rocket 3.9 19:28:42 10° N 19:34:53 76° E 19:35:51 63° SE
Cosmos 1726 Rocket 4.3 19:35:41 43° WNW 19:35:41 43° WNW 19:39:28 10° N
Meteor 1-26 Rocket 4.1 19:35:05 69° SSW 19:35:48 85° W 19:41:29 10° N
Cosmos 2237 Rocket 4.4 19:32:25 10° N 19:35:48 16° NE 19:38:44 11° E
Meteor 2-2 Rocket 4.1 19:40:15 73° S 19:40:50 88° E 19:46:38 10° N
Aureole 1 Rocket 4.1 19:35:21 10° NNW 19:41:18 69° ENE 19:42:31 57° ESE
COSMOS 2428 3.6 19:41:57 10° N 19:47:17 39° ENE 19:48:16 36° E
SL-16 R/B 3.8 19:43:48 10° NW 19:48:01 22° W 19:49:05 21° WSW
NOSS 3-4 (A) 4.2 19:42:46 10° NW 19:49:36 55° WSW 19:51:14 47° SSW
NOSS 3-4 (C) 4.2 19:43:24 10° NW 19:50:15 55° WSW 19:51:53 48° SSW
Cosmos 468 Rocket 3.9 19:50:33 82° W 19:50:40 83° WNW 19:55:58 10° NNE
Cosmos-2242 3.9 19:57:48 42° NW 19:57:48 42° NW 20:01:10 10° N
USA 234 3.4 19:54:02 10° NE 19:59:52 52° ESE 19:59:52 52° ESE
Cosmos 2279 Rocket 3.8 20:08:45 75° S 20:09:20 87° E 20:15:37 10° N
ACS3 Solar Sail 4.0 20:08:52 10° ENE 20:10:03 11° E 20:10:22 11° E
Cosmos 1634 Rocket 4.2 20:13:07 53° WSW 20:14:10 60° W 20:20:19 10° N
CZ-2C R/B 4.3 20:09:05 10° NNE 20:13:51 34° E 20:13:51 34° E
Cosmos 2333 Rocket 4.3 20:12:39 10° WNW 20:15:35 14° W 20:16:16 14° WSW
Meteor 1-14 Rocket 4.1 20:11:21 10° N 20:16:48 78° ENE 20:16:48 78° ENE
SL-08 ROCKET BODY 4.3 20:12:03 10° N 20:18:16 85° W 20:18:40 78° SSW
Cosmos 2297 Rocket 3.0 20:19:59 40° ENE 20:19:59 40° ENE 20:24:16 10° NE
Helios 1B rocket 4.3 20:21:14 23° NW 20:21:14 23° NW 20:22:46 10° NNW
Cosmos 2221 3.6 20:22:50 41° N 20:22:50 41° N 20:25:37 10° N
Cosmos 1898 Rocket 3.6 20:17:07 10° NNW 20:21:54 72° NNE 20:21:54 72° NNE
CZ-2C R/B 4.3 20:22:33 10° N 20:26:14 54° NNW 20:26:14 54° NNW
Cosmos 44 4.0 20:24:17 10° NW 20:28:39 52° WNW 20:28:39 52° WNW
Cosmos 2360 Rocket 4.0 20:25:46 10° NW 20:29:39 20° W 20:29:39 20° W
Cosmos 2322 3.6 20:26:24 10° NNW 20:31:53 82° NW 20:31:53 82° NW
Cosmos 2266 Rocket 3.8 20:36:03 10° N 20:42:07 78° E 20:42:17 77° ESE
GP-B 4.1 20:38:38 10° N 20:41:42 43° NNE 20:41:42 43° NNE
Cosmos 2219 Rocket 3.7 20:38:48 10° NW 20:42:48 25° W 20:42:48 25° W
ISS -0.6 20:40:58 10° NW 20:41:23 13° NW 20:41:23 13° NW
Cosmos 841 Rocket 4.0 20:48:19 53° WNW 20:48:19 53° WNW 20:53:24 10° N
Meteor 1-19 Rocket 4.4 20:49:52 63° W 20:50:03 63° WNW 20:55:56 10° N
ARIANE 5 R/B 4.0 20:54:55 33° NW 20:54:55 33° NW 20:57:51 10° NNW
ALOS 2 3.8 20:56:35 36° NW 20:56:35 36° NW 20:59:30 10° NNW
RESURS DK-1 4.3 20:55:44 10° NW 20:57:22 23° NW 20:57:22 23° NW
SL-16 R/B 4.2 21:03:54 10° N 21:08:20 23° NE 21:11:57 13° E
Cosmos 1655 Rocket 4.1 21:03:46 10° N 21:09:58 64° E 21:10:33 61° ESE
Lacrosse 4 Rocket 2.9 21:16:34 32° NNE 21:16:34 32° NNE 21:18:50 10° NNE
CZ-2C R/B 2.6 21:17:31 77° N 21:17:31 77° N 21:22:22 10° NNW
Cosmos 2237 Rocket 2.1 21:15:01 10° NNW 21:20:30 83° N 21:20:30 83° N
Cosmos 1980 3.7 21:19:10 10° NNW 21:24:26 75° WNW 21:24:26 75° WNW
Iridium 4 Rocket 3.8 21:25:13 66° E 21:25:15 66° E 21:31:01 10° N
Cosmos 2227 Rocket 2.3 21:29:18 66° E 21:29:18 66° E 21:34:37 10° NNE
Meteor 2-4 Rocket 3.7 21:29:47 73° NW 21:29:47 73° NW 21:35:03 10° N
Cosmos 1932 4.4 21:31:00 70° SE 21:31:16 71° ESE 21:37:49 10° NE
COSMOS 2428 3.9 21:26:24 10° NW 21:30:13 29° W 21:30:13 29° W
NOSS 0 Rocket 4.5 21:26:20 10° NW 21:31:29 44° W 21:31:29 44° W
Cosmos 2263 Rocket 2.6 21:39:15 50° E 21:39:15 50° E 21:44:21 10° NE
BREEZE-M DEB (TANK) 4.5 21:19:51 10° WNW 21:40:16 79° SW 21:42:02 53° SE
ATLAS 5 CENTAUR R/B 3.4 21:40:01 55° SE 21:40:41 58° ESE 21:55:38 10° NE
USA 234 3.9 21:37:06 10° NE 21:43:23 52° NNW 21:47:10 24° W
Cosmos 1151 Rocket 4.2 21:48:34 38° ENE 21:48:34 38° ENE 21:51:50 10° NNE
SeaSat 1 2.5 21:49:01 72° NE 21:49:01 72° NE 21:53:50 10° NNW
ACS3 Solar Sail 1.6 21:47:17 10° NNE 21:53:17 78° E 21:53:51 71° SSE
CZ-2C R/B 4.2 21:48:49 10° N 21:54:01 36° WNW 21:54:49 35° W
Cosmos 1500 Rocket 4.3 21:55:54 10° N 21:59:56 47° ENE 21:59:56 47° ENE
Cosmos 2297 Rocket 3.5 22:01:44 26° W 22:03:07 29° NW 22:08:02 10° N
BlueWalker 3 3.7 22:07:41 28° N 22:07:41 28° N 22:10:10 10° NE
Nadezhda 2 Rocket 4.3 22:03:16 10° N 22:09:27 88° W 22:10:23 67° S
Cosmos 1125 Rocket 4.0 22:04:19 10° NNW 22:09:31 57° ENE 22:10:39 47° ESE
Cosmos 2082 4.3 22:11:15 42° ESE 22:11:46 43° ESE 22:17:03 10° NE
Okean 3 Rocket 4.1 22:08:28 10° NNW 22:12:07 54° NW 22:12:07 54° NW
Meteor 2-10 Rocket 4.0 22:10:50 10° NNW 22:16:03 50° W 22:16:03 50° W
Cosmos 1553 Rocket 4.0 22:16:07 61° SW 22:17:07 71° W 22:23:33 10° N
Cosmos 1340 Rocket 3.6 22:15:48 10° N 22:18:42 46° NNE 22:18:42 46° NNE
Sich 1 4.1 22:19:41 10° NNW 22:22:24 34° NW 22:22:24 34° NW
Atlas Centaur 2 4.0 22:29:10 24° SE 22:29:10 24° SE 22:33:34 10° ESE
BREEZE-M DEB (TANK) 3.8 22:15:15 10° WSW 22:28:34 63° NNW 22:32:38 10° NE
Cosmos 1709 Rocket 4.5 22:22:30 10° N 22:28:34 55° E 22:31:28 31° SE
Cosmos 1805 Rocket 3.8 22:24:33 10° N 22:28:13 61° NNW 22:28:13 61° NNW
CENTAUR R/B 3.2 22:32:14 31° SE 22:33:13 33° ESE 22:38:47 10° NE
Cosmos 1743 Rocket 3.6 22:29:33 10° N 22:33:48 70° ENE 22:33:48 70° ENE
Cosmos 1386 Rocket 4.4 22:31:32 10° N 22:37:52 75° W 22:39:23 53° SSW
Cosmos 2208 Rocket 4.4 22:38:38 47° SE 22:39:35 54° ESE 22:44:44 10° NNE
Cosmos 1953 3.3 22:36:18 10° N 22:39:41 35° ENE 22:39:49 35° E
IDEFIX/ARIANE 42P 2.6 22:36:11 10° NNE 22:41:24 70° ESE 22:42:24 56° SSE
FENGYUN 3A 4.1 22:38:20 10° NNE 22:43:39 55° E 22:45:06 42° SSE
CZ-2D R/B 4.2 22:45:35 10° NE 22:49:33 20° E 22:53:17 11° SE
Cosmos 1745 Rocket 3.9 22:45:24 10° N 22:51:32 77° W 22:53:22 47° SSW
Cosmos 2219 3.1 22:51:04 55° SW 22:52:17 76° WNW 22:57:55 10° NNE
Cosmos 1408 Rocket 4.4 22:48:39 10° NNW 22:51:52 36° WNW 22:51:52 36° WNW
Cosmos 2084 3.3 22:48:32 10° NW 22:52:40 81° NE 22:52:44 81° ENE
SL-16 R/B 2.2 22:47:16 10° NNW 22:52:53 62° WSW 22:53:44 55° SSW
Lacrosse 4 Rocket 3.9 22:51:57 10° WNW 22:53:10 11° NW 22:54:31 10° NNW
Cosmos 1328 Rocket 3.7 22:56:34 55° SE 22:57:14 64° E 23:01:36 10° NNE
NPP 3.7 22:52:34 10° NNE 22:57:58 75° ESE 22:59:35 46° S
Envisat 4.4 22:56:46 10° NNE 23:01:17 32° E 23:03:58 20° SE
Cosmos 2237 Rocket 4.3 23:01:33 10° WNW 23:02:17 11° W 23:02:17 11° W
Cosmos 1703 4.1 23:10:39 30° NW 23:10:39 30° NW 23:12:44 10° N
Tiangong -0.1 23:12:54 21° ESE 23:12:54 21° ESE 23:14:04 10° ESE
Cosmos 2227 Rocket 4.0 23:11:04 16° W 23:13:32 21° NW 23:17:46 10° N
ALOS 3.9 23:09:49 10° NE 23:13:42 27° E 23:16:28 16° SE
USA 281 4.2 23:07:38 10° SE 23:13:51 48° ENE 23:20:06 10° NNW
ADEOS Rocket 3.4 23:11:29 10° NNE 23:19:10 82° WNW 23:22:56 32° SSW
Meteor 1-22 Rocket 4.2 23:14:32 10° NNW 23:20:12 61° W 23:22:06 39° SSW
Cosmos 1867 4.4 23:17:30 10° NNW 23:22:52 53° NE 23:28:11 10° SE
Cosmos 2263 Rocket 3.6 23:20:54 20° W 23:23:07 26° NW 23:27:45 10° N
BREEZE-M DEB (TANK) 3.3 23:23:10 17° WNW 23:25:33 84° SSW 23:35:10 10° ESE
SeaSat 1 4.5 23:28:36 12° WNW 23:28:36 12° WNW 23:29:30 10° WNW
Cosmos 2227 4.2 23:24:20 35° SSW 23:26:49 78° ESE 23:32:34 10° NNE
MOZ.5/SAFIR/RUBIN 5/SL-8 3.8 23:25:30 23° SSE 23:28:23 76° ENE 23:32:58 10° N
USA 81 3.9 23:25:50 10° N 23:31:06 81° W 23:33:51 29° S
Geosat FO 4.3 23:30:45 10° NE 23:33:14 55° E 23:33:14 55° E
ACS3 Solar Sail 3.5 23:31:07 10° NNW 23:34:55 18° WNW 23:37:20 14° W
Cosmos 1633 Rocket 3.0 23:30:45 10° NNW 23:35:01 65° W 23:36:21 41° SSW
Cosmos 1470 Rocket 3.5 23:32:16 10° N 23:36:39 84° E 23:39:09 25° S
ADEOS II 3.3 23:32:05 10° NNE 23:36:56 37° E 23:41:26 11° SSE
Cosmos 1943 3.1 23:31:50 10° NNW 23:37:26 71° WSW 23:42:31 12° SSE
NOSS 2-2 (E) 2.9 23:37:09 56° S 23:37:42 72° SE 23:40:47 10° NE
Meteor 1-23 Rocket 4.2 23:40:59 30° SSW 23:43:54 70° WNW 23:49:35 10° N
ATLAS 2AS CENTAUR R/B 2.6 23:38:15 10° NW 23:45:04 84° WSW 23:51:54 10° SSE
Meteor 1-12 Rocket 4.4 23:41:31 10° N 23:47:13 74° ENE 23:52:50 10° SSE
Cosmos 2298 Rocket 4.0 23:43:14 10° NNW 23:48:31 65° WSW 23:52:59 14° S
Cosmos 2285 Rocket 4.0 23:42:23 10° NNW 23:48:44 89° ENE 23:55:04 10° SSE
Resurs 1-4 Rocket 2.2 23:43:35 10° NNE 23:48:52 74° ESE 23:52:31 20° S
Cosmos 1844 Rocket 2.7 23:50:47 28° SW 23:53:45 66° WNW 23:59:19 10° NNE
Okean 2 3.2 23:53:59 35° SSW 23:55:23 64° W 23:59:12 10° N
